Find Starlink 31289

NORAD ID: 59173 Int'l Des: 2024-044 Owner: SPXS Country: US Constellation: starlink operational
LEOCIRCULAR

Current View

Loading 3D Globe...

About Starlink 31289

Description loading...

Upcoming Passes

Passes for default location (London). Set your location on the main map for personalized predictions.

Altitude History

Loading altitude history...

Two-Line Element Set

1 59173U 24044X 26148.97413774 -.00001767 00000-0 -54742-4 0 9991
2 59173 43.0007 13.6581 0001069 18.9923 341.0969 15.27566947125870
Epoch: May 28, 2026 • Age: 29 hours

Current Status

Altitude 484.1 km
Velocity 7.62 km/s
Sub-Earth Point -3.82°S, 123.32°W
Launch Date Mar 4, 2024
Age 2.2 years
Type internet

Technical Details

Classification Payload
Mass 730.00 kg
Dry Mass 700.00 kg
Total Mass 730.00 kg
Length 0.30 m
Diameter 4.10 m
Span 29.00 m
Shape Box + pan
Manufacturer SPXS
Bus Type Starlink V2M
Phase Status In Orbit
Owner/State SPXS/US

Most Searched